Weather History for KAVC - February, 2013

Change the Weather History Date:

Tuesday, February 26, 2013

  Actual Average (KEMV) Record (KEMV)
Temperature  
Mean Temperature 40 °F -  
Max Temperature 53 °F 52 °F 70 °F (1985)
Min Temperature 26 °F 28 °F 9 °F (1990)
Degree Days  
Heating Degree Days 26    
Moisture  
Dew Point 41 °F    
Average Humidity 95    
Maximum Humidity 100    
Minimum Humidity 81    
Precipitation  
Precipitation 0.63 in - - ()
Sea Level Pressure  
Sea Level Pressure 29.92 in    
Wind  
Wind Speed 3 mph (ENE)    
Max Wind Speed 10 mph    
Max Gust Speed 23 mph    
Visibility 8 miles    
Events Fog , Rain    
Averages and records for this station are not official NWS values.
T = Trace of Precipitation, MM = Missing Value Source: NWS Daily Summary

Daily Weather History Graph

Daily Weather History Graph

Search for Another Location

Airport or City:

Trip Planner

Search our weather history database for the weather conditions in past years. The results will help you decide how hot, cold, wet, or windy it might be!

Date:

Astronomy

Feb. 26, 2013 Rise Set
Actual Time 6:46 AM EST 6:04 PM EST
Civil Twilight 6:20 AM EST 6:30 PM EST
Nautical Twilight 5:50 AM EST 7:00 PM EST
Astronomical Twilight 5:20 AM EST 7:30 PM EST
Moon 7:15 PM EST (2/26) 6:50 AM EST (2/26)
Length of Visible Light 12h 09m
Length of Day
11h 17m
Full, 99% of the Moon is Illuminated
Feb 26
Full
Mar 4
Last Quarter
Mar 11
New
Mar 19
First Quarter
Mar 27
Full

Hourly Weather History & Observations

Time (EST) Temp. Windchill Dew Point Humidity Pressure Visibility Wind Dir Wind Speed Gust Speed Precip Events Conditions
12:15 AM 26.6 °F - 24.8 °F 93% 30.22 in 10.0 mi Calm Calm - N/A   Clear
12:35 AM 28.4 °F - 26.6 °F 93% 30.23 in 10.0 mi Calm Calm - N/A   Clear
12:55 AM 28.4 °F - 26.6 °F 93% 30.23 in 10.0 mi Calm Calm - N/A   Clear
1:15 AM 28.4 °F - 26.6 °F 93% 30.21 in 10.0 mi Calm Calm - N/A   Clear
1:35 AM 30.2 °F - 26.6 °F 86% 30.21 in 10.0 mi Calm Calm - N/A   Clear
1:55 AM 30.2 °F 26.7 °F 26.6 °F 86% 30.21 in 10.0 mi NNE 3.5 mph - N/A   Clear
2:15 AM 30.2 °F - 26.6 °F 86% 30.19 in 10.0 mi Calm Calm - N/A   Clear
2:35 AM 30.2 °F - 26.6 °F 86% 30.19 in 10.0 mi Calm Calm - N/A   Clear
2:55 AM 30.2 °F - 26.6 °F 86% 30.19 in 10.0 mi Calm Calm - N/A   Clear
3:15 AM 30.2 °F - 26.6 °F 86% 30.18 in 10.0 mi Calm Calm - N/A   Clear
3:35 AM 30.2 °F - 26.6 °F 86% 30.18 in 10.0 mi Calm Calm - N/A   Scattered Clouds
3:55 AM 30.2 °F 26.7 °F 26.6 °F 86% 30.17 in 10.0 mi NNE 3.5 mph - N/A   Mostly Cloudy
4:15 AM 30.2 °F 26.7 °F 28.4 °F 93% 30.16 in 10.0 mi NNE 3.5 mph - N/A   Mostly Cloudy
4:35 AM 32.0 °F - 28.4 °F 87% 30.15 in 10.0 mi Calm Calm - N/A   Mostly Cloudy
4:55 AM 32.0 °F 27.5 °F 28.4 °F 87% 30.15 in 10.0 mi NNE 4.6 mph - N/A   Overcast
5:15 AM 33.8 °F 30.8 °F 28.4 °F 81% 30.16 in 10.0 mi NE 3.5 mph - N/A   Overcast
5:35 AM 33.8 °F - 28.4 °F 81% 30.15 in 10.0 mi Calm Calm - N/A   Overcast
5:55 AM 33.8 °F 30.8 °F 28.4 °F 81% 30.15 in 10.0 mi NNE 3.5 mph - N/A   Overcast
6:15 AM 33.8 °F - 28.4 °F 81% 30.15 in 10.0 mi Calm Calm - N/A   Light Drizzle
6:35 AM 33.8 °F 30.8 °F 30.2 °F 87% 30.13 in 10.0 mi NE 3.5 mph - N/A   Overcast
6:55 AM 33.8 °F 30.8 °F 30.2 °F 87% 30.12 in 10.0 mi NNE 3.5 mph - N/A   Overcast
7:15 AM 33.8 °F 30.8 °F 30.2 °F 87% 30.12 in 10.0 mi NE 3.5 mph - N/A   Overcast
7:35 AM 33.8 °F 29.6 °F 30.2 °F 87% 30.12 in 10.0 mi NE 4.6 mph - N/A   Overcast
7:55 AM 35.6 °F 31.7 °F 30.2 °F 81% 30.13 in 10.0 mi NNE 4.6 mph - N/A   Overcast
8:15 AM 35.6 °F 32.8 °F 30.2 °F 81% 30.13 in 10.0 mi NE 3.5 mph - N/A   Drizzle
8:35 AM 35.6 °F 31.7 °F 32.0 °F 87% 30.13 in 10.0 mi NE 4.6 mph - N/A   Drizzle
8:55 AM 35.6 °F - 33.8 °F 93% 30.12 in 10.0 mi Calm Calm - N/A Rain Light Rain
9:35 AM 35.6 °F 31.7 °F 35.6 °F 100% 30.09 in 10.0 mi NNE 4.6 mph - N/A Rain Light Rain
9:55 AM 37.4 °F 32.1 °F 37.4 °F 100% 30.07 in 10.0 mi ENE 6.9 mph - 0.01 in Rain Rain
10:15 AM 37.4 °F 33.8 °F 37.4 °F 100% 30.06 in 10.0 mi NE 4.6 mph - 0.01 in Rain Light Rain
10:35 AM 37.4 °F - 37.4 °F 100% 30.04 in 7.0 mi Calm Calm - 0.04 in Rain Rain
10:55 AM 37.4 °F 34.9 °F 37.4 °F 100% 30.03 in 10.0 mi ENE 3.5 mph - 0.01 in Rain Light Rain
11:15 AM 39.2 °F 35.9 °F 39.2 °F 100% 30.02 in 5.0 mi ENE 4.6 mph - 0.02 in Rain Light Rain
11:35 AM 39.2 °F 37.0 °F 39.2 °F 100% 30.00 in 5.0 mi ENE 3.5 mph - 0.05 in Rain Rain
11:55 AM 39.2 °F 37.0 °F 39.2 °F 100% 29.98 in 5.0 mi ENE 3.5 mph - 0.02 in Rain Rain
12:15 PM 41.0 °F 37.1 °F 41.0 °F 100% 29.97 in 5.0 mi NE 5.8 mph - 0.03 in Rain Light Rain
12:35 PM 42.8 °F 39.3 °F 42.8 °F 100% 29.96 in 4.0 mi ENE 5.8 mph - 0.06 in Rain Rain
12:55 PM 42.8 °F 40.1 °F 42.8 °F 100% 29.93 in 4.0 mi NE 4.6 mph - 0.03 in Rain Rain
1:15 PM 44.6 °F 42.2 °F 44.6 °F 100% 29.90 in 7.0 mi ENE 4.6 mph - 0.07 in Rain Rain
1:35 PM 44.6 °F 40.2 °F 44.6 °F 100% 29.88 in 7.0 mi ENE 8.1 mph - 0.15 in Rain Heavy Rain
1:55 PM 44.6 °F 40.7 °F 44.6 °F 100% 29.84 in 7.0 mi ENE 6.9 mph - 0.03 in Rain Rain
2:15 PM 46.4 °F 42.9 °F 46.4 °F 100% 29.82 in 10.0 mi East 6.9 mph - 0.07 in Rain Rain
2:35 PM 46.4 °F 42.9 °F 46.4 °F 100% 29.81 in 10.0 mi ESE 6.9 mph - 0.11 in Rain Light Rain
2:55 PM 48.2 °F - 48.2 °F 100% 29.77 in 10.0 mi East 6.9 mph 17.3 mph 0.03 in Rain Rain
3:15 PM 48.2 °F - 48.2 °F 100% 29.76 in 4.0 mi East 8.1 mph - 0.11 in Rain Heavy Rain
3:35 PM 48.2 °F - 48.2 °F 100% 29.74 in 10.0 mi ESE 8.1 mph - 0.15 in Rain Light Rain
3:55 PM 50.0 °F - 50.0 °F 100% 29.71 in 10.0 mi SE 5.8 mph - 0.01 in Rain Rain
4:15 PM 51.8 °F - 51.8 °F 100% 29.70 in 7.0 mi ESE 10.4 mph 23.0 mph 0.02 in   Drizzle
4:35 PM 51.8 °F - 51.8 °F 100% 29.67 in 7.0 mi East 9.2 mph 16.1 mph 0.03 in   Drizzle
4:55 PM 51.8 °F - 51.8 °F 100% 29.66 in 4.0 mi ESE 6.9 mph - 0.01 in   Drizzle
5:15 PM 51.8 °F - 51.8 °F 100% 29.65 in 7.0 mi ESE 6.9 mph 20.7 mph 0.01 in   Light Drizzle
5:35 PM 53.6 °F - 53.6 °F 100% 29.65 in 5.0 mi ESE 3.5 mph - 0.02 in Rain Rain
5:55 PM 53.6 °F - 53.6 °F 100% 29.64 in 10.0 mi SE 5.8 mph - 0.01 in Rain Light Rain
6:15 PM 53.6 °F - 53.6 °F 100% 29.64 in 10.0 mi East 5.8 mph - 0.01 in   Light Drizzle
6:35 PM 53.6 °F - 53.6 °F 100% 29.64 in 10.0 mi SE 4.6 mph - 0.01 in Rain Light Rain
6:55 PM 53.6 °F - 53.6 °F 100% 29.64 in 10.0 mi ESE 4.6 mph - N/A Rain Light Rain
7:15 PM 53.6 °F - 53.6 °F 100% 29.64 in 10.0 mi Calm Calm - N/A Rain Light Rain
7:35 PM 53.6 °F - 53.6 °F 100% 29.65 in 10.0 mi Calm Calm - N/A   Overcast
7:55 PM 53.6 °F - 53.6 °F 100% 29.64 in 7.0 mi Calm Calm - N/A   Light Drizzle
8:15 PM 53.6 °F - 53.6 °F 100% 29.63 in 4.0 mi Calm Calm - N/A   Overcast
8:35 PM 53.6 °F - 53.6 °F 100% 29.64 in 1.0 mi Calm Calm - N/A   Overcast
8:55 PM 53.6 °F - 53.6 °F 100% 29.64 in 0.5 mi Calm Calm - N/A Fog Fog
9:15 PM 51.8 °F - 51.8 °F 100% 29.65 in 0.2 mi Calm Calm - N/A Fog Fog
9:35 PM 53.6 °F - 53.6 °F 100% 29.66 in 0.2 mi Calm Calm - N/A Fog Fog
9:55 PM 53.6 °F - 53.6 °F 100% 29.66 in 0.2 mi Calm Calm - N/A Fog Fog
10:15 PM 53.6 °F - 53.6 °F 100% 29.66 in 0.2 mi West 3.5 mph - N/A Fog Fog
10:35 PM 53.6 °F - 53.6 °F 100% 29.65 in 2.0 mi WSW 5.8 mph - N/A   Overcast
10:55 PM 53.6 °F - 53.6 °F 100% 29.66 in 4.0 mi WSW 6.9 mph - N/A   Overcast
11:15 PM 53.6 °F - 53.6 °F 100% 29.65 in 10.0 mi SW 5.8 mph - N/A   Overcast
11:35 PM 51.8 °F - 51.8 °F 100% 29.63 in 10.0 mi SW 4.6 mph - N/A   Scattered Clouds
11:55 PM 50.0 °F - 50.0 °F 100% 29.63 in 5.0 mi SSW 4.6 mph - N/A   Scattered Clouds